{"data":{"norad_id":47625,"intl_designator":"2021-012F","name":"STARLINK-1704","alt_names":[],"object_type":"PAYLOAD","status":"ACTIVE","operator":null,"country":"US","launch_date":"2021-02-16","launch_site_code":"AFETR","launch_vehicle":null,"mission":null,"orbit_class":"UNKNOWN","rcs_meters":null,"size_class":null,"mass_kg":null,"dimensions":null,"purposes":["comms"],"wikipedia_slug":null,"has_3d_model":false,"image_url":null,"decayed_at":null,"tle_current":{"epoch":"2026-09-20T04:00:03.000096Z","epoch_age_seconds":54629,"freshness":"FRESH","line1":"1 47625U 21012F   26263.16670139  .00216028  00000+0  81452-3 0  9993","line2":"2 47625  53.0370 191.4178 0006839 112.2646 258.8946 15.86619895  6043","mean_motion":15.86619895,"eccentricity":0.0006839,"inclination_deg":53.037,"raan_deg":191.4178,"arg_perigee_deg":112.2646,"mean_anomaly_deg":258.8946,"bstar":0.00081452,"rev_number":604,"period_min":90.75897790882,"perigee_km":307.19216192959,"apogee_km":316.34261315087,"semimajor_km":6689.9043875402,"source":"CELESTRAK","updated_at":"2026-09-20T09:00:38.597152Z"}}}